Weather History for KPMV - October, 2013

Change the Weather History Date:

Sunday, October 13, 2013

  Actual Average (KOFF) Record (KOFF)
Temperature  
Mean Temperature 56 °F -  
Max Temperature 70 °F 65 °F 84 °F (1996)
Min Temperature 42 °F 43 °F 26 °F (2006)
Degree Days  
Heating Degree Days 9    
Growing Degree Days 6 (Base 50)    
Moisture  
Dew Point 33 °F    
Average Humidity 46    
Maximum Humidity 73    
Minimum Humidity 24    
Precipitation  
Precipitation 0.00 in - - ()
Sea Level Pressure  
Sea Level Pressure 30.34 in    
Wind  
Wind Speed 3 mph (ESE)    
Max Wind Speed 12 mph    
Max Gust Speed 17 mph    
Visibility 10 miles    
Events      
Averages and records for this station are not official NWS values.
T = Trace of Precipitation, MM = Missing Value Source: NWS Daily Summary

Daily Weather History Graph

Daily Weather History Graph

Search for Another Location

Airport or City:

Trip Planner

Search our weather history database for the weather conditions in past years. The results will help you decide how hot, cold, wet, or windy it might be!

Date:

Astronomy

Oct. 13, 2013 Rise Set
Actual Time 7:33 AM CDT 6:45 PM CDT
Civil Twilight 7:05 AM CDT 7:13 PM CDT
Nautical Twilight 6:33 AM CDT 7:45 PM CDT
Astronomical Twilight 6:01 AM CDT 8:16 PM CDT
Moon 3:40 PM CDT (10/13) 1:41 AM CDT (10/13)
Length of Visible Light 12h 07m
Length of Day
11h 12m
Waxing Gibbous, 69% of the Moon is Illuminated
Oct 13
Waxing Gibbous
Oct 18
Full
Oct 26
Last Quarter
Nov 3
New
Nov 9
First Quarter

Hourly Weather History & Observations

Time (CDT) Temp. Windchill Dew Point Humidity Pressure Visibility Wind Dir Wind Speed Gust Speed Precip Events Conditions
12:15 AM 51.1 °F - 31.1 °F 46% 30.30 in 10.0 mi Calm Calm - N/A   Clear
12:35 AM 50.5 °F - 31.1 °F 47% 30.30 in 10.0 mi Calm Calm - N/A   Clear
12:55 AM 49.6 °F - 31.8 °F 50% 30.30 in 10.0 mi Calm Calm - N/A   Clear
1:15 AM 49.5 °F - 31.6 °F 50% 30.31 in 10.0 mi Calm Calm - N/A   Clear
1:35 AM 48.7 °F - 32.0 °F 52% 30.32 in 10.0 mi Calm Calm - N/A   Clear
1:55 AM 49.6 °F - 32.0 °F 51% 30.32 in 10.0 mi Calm Calm - N/A   Clear
2:15 AM 49.6 °F - 32.0 °F 51% 30.32 in 10.0 mi Calm Calm - N/A   Clear
2:35 AM 50.0 °F - 32.0 °F 50% 30.33 in 10.0 mi Calm Calm - N/A   Clear
2:55 AM 47.7 °F - 32.9 °F 57% 30.32 in 10.0 mi Calm Calm - N/A   Clear
3:15 AM 46.2 °F - 32.4 °F 58% 30.33 in 10.0 mi Calm Calm - N/A   Clear
3:35 AM 45.0 °F - 32.4 °F 61% 30.33 in 10.0 mi Calm Calm - N/A   Clear
3:55 AM 45.5 °F - 32.2 °F 60% 30.33 in 10.0 mi Calm Calm - N/A   Clear
4:15 AM 45.0 °F - 32.9 °F 63% 30.33 in 10.0 mi Calm Calm - N/A   Clear
4:35 AM 44.6 °F - 33.6 °F 65% 30.34 in 10.0 mi Calm Calm - N/A   Clear
4:55 AM 44.8 °F - 34.0 °F 66% 30.34 in 10.0 mi Calm Calm - N/A   Clear
5:15 AM 44.1 °F - 34.9 °F 70% 30.34 in 10.0 mi Calm Calm - N/A   Clear
5:35 AM 45.3 °F - 34.0 °F 65% 30.34 in 10.0 mi Calm Calm - N/A   Clear
5:55 AM 45.5 °F - 33.4 °F 63% 30.35 in 10.0 mi Calm Calm - N/A   Clear
6:15 AM 45.9 °F 44.6 °F 32.9 °F 61% 30.35 in 10.0 mi ENE 3.5 mph - N/A   Clear
6:35 AM 44.2 °F - 33.8 °F 67% 30.36 in 10.0 mi Calm Calm - N/A   Clear
6:55 AM 45.0 °F 43.5 °F 32.9 °F 63% 30.36 in 10.0 mi NE 3.5 mph - N/A   Clear
7:15 AM 43.7 °F - 33.3 °F 67% 30.36 in 10.0 mi Calm Calm - N/A   Clear
7:35 AM 43.2 °F 41.5 °F 33.1 °F 68% 30.37 in 10.0 mi NNE 3.5 mph - N/A   Clear
7:55 AM 42.1 °F 40.2 °F 34.0 °F 73% 30.37 in 10.0 mi NNE 3.5 mph - N/A   Clear
8:15 AM 43.3 °F - 33.8 °F 69% 30.38 in 10.0 mi Calm Calm - N/A   Clear
8:35 AM 45.0 °F - 34.7 °F 67% 30.39 in 10.0 mi Calm Calm - N/A   Clear
8:55 AM 47.5 °F - 35.1 °F 62% 30.40 in 10.0 mi Calm Calm - N/A   Clear
9:15 AM 49.5 °F - 35.2 °F 58% 30.40 in 10.0 mi East 3.5 mph - N/A   Clear
9:35 AM 51.3 °F - 35.6 °F 55% 30.41 in 10.0 mi East 5.8 mph - N/A   Clear
9:55 AM 53.4 °F - 35.2 °F 50% 30.42 in 10.0 mi ESE 8.1 mph - N/A   Clear
10:15 AM 55.9 °F - 34.9 °F 45% 30.42 in 10.0 mi SE 4.6 mph - N/A   Clear
10:55 AM 58.6 °F - 35.4 °F 42% 30.42 in 10.0 mi ESE 6.9 mph - N/A   Clear
11:15 AM 60.3 °F - 34.7 °F 38% 30.42 in 10.0 mi SE 8.1 mph - N/A   Clear
11:35 AM 62.4 °F - 31.5 °F 31% 30.42 in 10.0 mi ESE 9.2 mph - N/A   Clear
11:55 AM 63.5 °F - 32.2 °F 31% 30.41 in 10.0 mi East 8.1 mph - N/A   Clear
12:15 PM 64.0 °F - 31.6 °F 30% 30.41 in 10.0 mi ESE 9.2 mph - N/A   Clear
12:35 PM 64.8 °F - 32.2 °F 30% 30.40 in 10.0 mi SE 6.9 mph - N/A   Clear
12:55 PM 65.8 °F - 31.8 °F 28% 30.40 in 10.0 mi ESE 9.2 mph - N/A   Clear
1:15 PM 66.6 °F - 32.2 °F 28% 30.39 in 10.0 mi SSE 9.2 mph - N/A   Clear
1:35 PM 67.6 °F - 32.4 °F 27% 30.38 in 10.0 mi ESE 6.9 mph - N/A   Clear
1:55 PM 68.2 °F - 31.3 °F 25% 30.37 in 10.0 mi SE 8.1 mph - N/A   Clear
2:15 PM 68.2 °F - 31.1 °F 25% 30.36 in 10.0 mi ESE 5.8 mph 17.3 mph N/A   Clear
2:35 PM 69.3 °F - 31.6 °F 25% 30.35 in 10.0 mi ESE 9.2 mph - N/A   Clear
2:55 PM 70.0 °F - 32.0 °F 25% 30.33 in 10.0 mi SE 6.9 mph - N/A   Clear
3:15 PM 70.0 °F - 32.0 °F 25% 30.33 in 10.0 mi ESE 8.1 mph - N/A   Clear
3:35 PM 70.0 °F - 31.8 °F 24% 30.32 in 10.0 mi ESE 6.9 mph - N/A   Clear
3:55 PM 69.8 °F - 31.6 °F 24% 30.31 in 10.0 mi SE 5.8 mph - N/A   Clear
4:15 PM 70.0 °F - 31.8 °F 24% 30.31 in 10.0 mi ESE 9.2 mph - N/A   Clear
4:35 PM 69.8 °F - 31.8 °F 25% 30.31 in 10.0 mi ESE 6.9 mph - N/A   Clear
4:55 PM 69.4 °F - 32.2 °F 25% 30.30 in 10.0 mi ESE 11.5 mph - N/A   Clear
5:15 PM 68.9 °F - 32.2 °F 26% 30.30 in 10.0 mi ESE 6.9 mph - N/A   Clear
5:35 PM 68.2 °F - 32.5 °F 27% 30.29 in 10.0 mi ESE 8.1 mph - N/A   Clear
5:55 PM 67.3 °F - 33.1 °F 28% 30.30 in 10.0 mi ESE 8.1 mph - N/A   Clear
6:15 PM 65.3 °F - 33.1 °F 30% 30.29 in 10.0 mi ESE 9.2 mph - N/A   Clear
6:35 PM 63.5 °F - 33.3 °F 32% 30.30 in 10.0 mi ESE 5.8 mph - N/A   Clear
6:55 PM 62.1 °F - 34.0 °F 35% 30.30 in 10.0 mi ESE 5.8 mph - N/A   Clear
7:15 PM 60.6 °F - 35.6 °F 39% 30.31 in 10.0 mi ESE 5.8 mph - N/A   Clear
7:35 PM 60.1 °F - 34.9 °F 39% 30.31 in 10.0 mi ESE 5.8 mph - N/A   Clear
7:55 PM 59.2 °F - 35.2 °F 41% 30.31 in 10.0 mi SE 6.9 mph - N/A   Clear
8:15 PM 59.0 °F - 34.7 °F 40% 30.31 in 10.0 mi ESE 8.1 mph - N/A   Clear
8:35 PM 58.5 °F - 34.9 °F 41% 30.31 in 10.0 mi ESE 6.9 mph - N/A   Clear
8:55 PM 57.7 °F - 34.9 °F 42% 30.30 in 10.0 mi ESE 8.1 mph - N/A   Clear
9:15 PM 55.8 °F - 35.4 °F 46% 30.30 in 10.0 mi ESE 8.1 mph - N/A   Clear
9:35 PM 54.0 °F - 36.0 °F 51% 30.30 in 10.0 mi ESE 8.1 mph - N/A   Clear
9:55 PM 54.5 °F - 36.0 °F 50% 30.31 in 10.0 mi ESE 5.8 mph - N/A   Clear
10:15 PM 54.9 °F - 36.5 °F 50% 30.31 in 10.0 mi ESE 5.8 mph - N/A   Clear
10:35 PM 55.0 °F - 36.5 °F 50% 30.31 in 10.0 mi ESE 8.1 mph - N/A   Clear
10:55 PM 55.0 °F - 36.3 °F 49% 30.31 in 10.0 mi ESE 6.9 mph - N/A   Clear
11:15 PM 54.9 °F - 36.5 °F 50% 30.31 in 10.0 mi ESE 9.2 mph - N/A   Clear
11:35 PM 53.6 °F - 36.7 °F 53% 30.30 in 10.0 mi ESE 10.4 mph - N/A   Clear
11:55 PM 53.8 °F - 36.5 °F 52% 30.29 in 10.0 mi ESE 8.1 mph - N/A   Clear